Terminal Aerodrome Forecast
Issued by NWS Topeka, KS

Home | Current Version | Previous Version | Text Only | Print | Product List | Glossary On
Versions: 1 2 3 4 5 6 7 8 9 10 11 12 13 14 15 16 17 18 19 20
000
FTUS43 KTOP 280900 AAA
TAFTOP
TAF AMD
KTOP 280913Z 2809/2906 10004KT P6SM OVC250
     FM281030 22015G25KT 2SM TSRA BR BKN035CB
     FM281130 22010KT 6SM -TSRA BR BKN080CB
     FM281400 15009KT P6SM SCT040 BKN150
     FM282000 16011KT P6SM VCTS SCT040CB
     FM290200 17006KT P6SM BKN035=

USA.gov is the U.S. government's official web portal to all federal, state and local government web resources and services.